EHI
0 0 0 0 0 0 0 0 0 0 0 0 0 0 0 0 0 0 0 0 0 0 0 0 0 0 0 0 0 0 0 0 0 0 0 0 0 0 0 0 0 0 0 0
0 0 0 0 0 0 0 0 0 0 0 0 0 0 0 0 0 0 0 0 0 0 0 0 0 0 0 0 0 0 0 0 0 0 0 0 0 0 0 0 0 0 0 0
0 0 0 0 0 0 0 0 0 0 0 0 0 0 0 0 0 0 0 0 0 0 0 0 0 0 0 0 0 0 0 0 0 0 0 0 0 0 0 0 0 0 0 0
0 0 0 0 0 0 0 0 0 0 0 0 0 0 0 0 0 0 0 0 0 0 0 0 0 0 0 0 0 0 0 0 0 0 0 0 0 0 0 0 0 0 0 0
0 0 0 0 0 0 0 0 0 0 0 0 0 0 0 0 0 0 0 0 0 0 0 0 0 0 0 0 0 0 0 0 0 0 0 0 0 0 0 0 0 0 0 0
0 0 0 0 0 0 0 0 0 0 0 0 0 0 0 0 0 0 0 0 0 0 0 0 0 0 0 0 0 0 0 0 0 0 0 0 0 0 0 0 0 0 0 0
0 0 0 0 0 0 0 0 0 0 0 0 0 0 0 0 0 0 0 0 0 0 0 0 0 0 0 0 0 0 0 0 0 0 0 0 0 0 0 0 0 0 0 0
0 0 0 0 0 0 0 0 0 0 0 0 0 0 0 0 0 0 0 0 0 0 0 0 0 0 0 0 0 0 0 0 0 0 0 0 0 0 0 0 0 0 0 0
0 0 0 0 0 0 0 0 0 0 0 0 0 0 0 0 0 0 0 0 0 0 0 0 0 0 0 0 0 0 0 0 0 0 0 0 0 0 0 0 0 0 0 0
0 0 0 0 0 0 0 0 0 0 0 0 0 0 0 0 0 0 0 0 0 0 0 0 0 0 0 0 0 0 0 0 0 0 0 0 0 0 0 0 0 0 0 0
0 0 0 0 0 0 0 0 0 0 0 0 0 0 0 0 0 0 0 0 0 0 0 0 0 0 0 0 0 0 0 0 0 0 0 0 0 0 0 0 0 0 0 0
0 0 0 0 0 0 0 0 0 0 0 0 0 0 0 0 0 0 0 0 0 0 0 0 0 0 0 0 0 0 0 0 0 0 0 0 0 0 0 0 0 0 0 0
0 0 0 0 0 0 0 0 0 0 0 0 0 0 0 0 0 0 0 0 0 0 0 0 0 0 0 0 0 0 0 0 0 0 0 0 0 0 0 0 0 0 0 0
0 0 0 0 0 0 0 0 0 0 0 0 0 0 0 0 0 0 0 0 0 0 0 0 0 0 0 0 0 0 0 0 0 0 0 0 0 0 0 0 0 0 0 0
0 0 0 0 0 0 0 0 0 0 0 0 0 0 0 0 0 0 0 0 0 0 0 0 0 0 0 0 0 0 0 0 0 0 0 0 0 0 0 0 0 0 0 0
0 0 0 0 0 0 0 0 0 0 0 0 0 0 0 0 0 0 0 0 0 0 0 0 0 0 0 0 0 0 0 0 0 1 1 1 0 0 0 0 0 0 0 0
0 0 0 0 0 0 0 0 0 0 0 0 0 0 0 0 0 0 0 0 0 0 0 0 0 0 0 0 0 0 0 0 0 1 2 1 0 0 0 0 0 0 0 0
0 0 0 0 0 0 0 0 0 0 0 0 0 0 0 0 0 0 0 0 0 0 0 0 0 0 0 0 0 0 0 0 0 1 1 0 0 0 0 0 0 0 0 0
0 0 0 0 0 0 0 0 0 0 0 0 0 0 0 0 0 0 0 0 0 0 0 0 0 0 0 0 0 0 0 0 0 0 0 0 0 0 0 0 0 0 0 0
0 0 0 0 0 0 0 0 0 0 0 0 0 0 0 0 0 0 0 0 0 0 0 0 0 0 0 0 0 0 0 0 0 0 0 0 0 0 0 0 0 0 0 0
0 0 0 0 0 0 0 0 0 0 0 0 0 0 0 0 0 0 0 0 0 0 0 0 0 0 0 0 0 0 0 0 0 0 0 0 0 0 0 0 0 0 0 0
0 0 0 0 0 0 0 0 0 0 0 0 0 0 0 0 0 0 0 0 0 0 0 0 0 0 0 0 0 0 0 0 0 0 0 0 0 0 0 0 0 0 0 0
0 0 0 0 0 0 0 0 0 0 0 0 0 0 0 0 0 0 0 0 0 0 0 0 0 0 0 0 0 0 0 0 0 0 0 0 0 0 0 0 0 0 0 0
0 0 0 0 0 0 0 0 0 0 0 0 0 0 0 0 0 0 0 0 0 0 0 0 0 0 0 0 0 0 0 0 0 0 0 0 0 0 0 0 0 0 0 0
0 0 0 0 0 0 0 0 0 0 0 0 0 0 0 0 0 0 0 0 0 0 0 0 0 0 0 0 0 0 0 0 0 0 0 0 0 0 0 0 0 0 0 0
0 0 0 0 0 0 0 0 0 0 0 0 0 0 0 0 0 0 0 0 0 0 0 0 0 0 0 0 0 0 0 0 0 0 0 0 0 0 0 0 0 0 0 0
0 0 0 0 0 0 0 0 0 0 0 0 0 0 0 0 0 0 0 0 0 0 0 0 0 0 0 0 0 0 0 0 0 0 0 0 0 0 0 0 0 0 0 0
Wind_Speed
9 9 9 9 10 9 10 11 12 12 11 9 8 6 4 2 3 5 6 8 8 8 8 9 8 8 8 7 8 7 7 6 5 4 3 3 2 2 1 1 2 2 2 2
12 12 12 12 12 12 12 12 11 11 9 8 7 6 4 3 2 3 5 7 9 10 9 10 10 9 8 8 8 8 7 7 5 4 4 3 2 2 1 1 2 2 2 2
12 13 13 12 9 8 7 7 8 8 7 7 7 6 5 3 2 2 4 5 7 9 9 10 11 10 9 9 8 7 7 7 6 5 4 4 3 2 2 2 2 1 2 2
10 12 14 7 4 4 4 6 6 6 6 7 8 6 3 5 4 2 2 3 5 7 8 9 9 9 9 9 8 8 7 7 6 6 5 4 3 2 2 2 1 1 1 1
9 11 11 7 5 5 5 5 7 7 8 9 9 7 3 7 5 3 2 2 3 5 6 8 8 9 10 10 9 8 7 7 7 7 6 5 4 3 2 1 0 0 0 0
8 11 11 6 7 6 5 3 8 9 9 10 10 6 7 10 7 5 2 1 2 3 5 6 7 8 9 9 9 8 8 7 7 7 6 5 5 4 3 3 2 1 1 1
9 11 7 6 7 5 3 6 10 10 10 10 9 8 9 10 9 6 3 1 1 2 3 4 6 7 8 8 9 8 8 7 6 6 6 5 4 3 3 3 3 2 2 2
8 9 4 8 6 6 7 9 10 10 11 10 10 10 10 9 8 7 5 2 1 1 2 3 5 6 7 7 7 8 8 7 7 6 6 6 5 3 3 3 3 3 2 2
6 5 5 6 6 7 9 10 10 10 11 11 11 11 11 9 7 6 5 4 2 2 3 3 4 5 6 6 8 9 9 8 7 7 5 5 5 4 3 2 2 2 2 2
10 8 8 8 8 7 8 10 10 10 11 12 12 13 12 9 7 6 5 5 3 3 4 4 5 5 6 7 8 9 9 8 7 7 6 5 4 3 3 2 2 1 2 2
14 11 10 8 10 11 11 12 13 12 12 12 13 12 12 11 9 6 5 5 4 4 5 5 5 6 6 8 9 9 9 8 7 6 7 6 4 3 3 3 3 3 2 2
10 10 11 11 12 14 13 13 13 13 13 12 12 12 12 11 9 7 6 6 6 6 5 5 6 6 7 8 9 10 9 9 7 6 6 6 7 5 7 6 8 9 7 5
11 11 11 12 13 13 13 14 14 13 13 13 12 11 12 11 10 9 7 7 7 7 6 6 6 7 8 9 9 10 9 9 7 7 7 7 7 7 5 4 6 7 7 7
9 10 11 11 12 12 13 14 14 14 13 12 12 11 11 11 11 11 9 8 8 8 7 6 7 7 8 9 9 9 9 10 9 7 7 7 7 7 7 7 5 3 3 6
8 9 10 11 11 12 12 12 13 13 13 13 12 12 12 12 12 12 10 9 8 8 8 7 7 7 7 9 10 10 8 7 7 7 7 7 7 7 6 7 6 6 5 4
9 9 9 10 11 11 12 12 13 13 14 14 13 13 13 12 12 12 10 9 8 9 8 8 7 6 6 8 9 8 7 11 10 8 7 6 6 6 6 6 6 6 6 6
8 9 9 10 11 11 12 12 13 13 13 14 14 14 14 13 12 12 11 10 9 9 8 8 7 5 6 8 9 7 6 9 13 9 7 7 6 6 6 6 6 5 5 6
6 7 9 10 11 12 12 13 12 13 13 13 14 13 13 13 13 13 12 12 10 9 8 7 5 4 6 7 7 6 7 7 7 7 7 6 6 6 6 6 6 6 5 5
7 8 9 11 11 12 12 12 13 13 13 13 13 14 13 13 12 12 12 12 11 9 7 5 6 5 6 7 7 6 8 8 7 6 6 8 8 6 6 6 6 7 7 6
8 9 10 11 12 12 12 12 13 13 12 12 13 13 13 12 12 11 11 11 9 7 6 5 5 5 6 6 7 6 7 9 8 7 7 7 7 7 6 7 7 7 6 6
9 10 11 12 12 12 12 13 12 12 12 12 12 13 13 12 11 11 10 9 8 6 5 5 4 4 4 4 6 5 6 7 8 7 8 7 7 7 7 7 6 6 6 5
10 10 11 12 12 12 11 12 12 12 12 12 12 12 12 11 11 10 9 7 7 7 4 3 3 3 4 5 3 4 5 6 6 6 6 7 7 7 7 7 6 6 5 5
11 11 12 13 13 14 13 12 11 11 10 11 11 11 11 10 8 8 8 6 5 6 4 3 3 4 6 4 3 3 4 5 5 6 6 6 6 6 6 7 6 6 5 5
13 12 13 13 14 14 13 12 11 9 9 10 9 10 10 8 7 6 6 7 7 6 3 3 4 6 6 3 4 4 4 4 4 5 5 5 5 5 5 5 5 5 5 6
13 14 14 13 12 10 11 11 11 10 8 7 8 8 7 6 6 6 6 5 5 4 2 3 5 6 4 3 4 4 4 5 5 5 5 5 5 5 5 5 6 6 5 5
12 11 10 11 10 8 8 8 7 7 7 7 6 5 5 5 6 5 4 4 4 3 2 1 2 3 3 3 3 4 4 5 6 6 6 6 6 6 6 6 7 5 5 5
12 10 8 8 8 7 6 6 6 7 6 6 6 5 6 6 6 5 5 4 3 2 1 1 2 2 2 2 2 3 3 4 5 5 5 5 5 5 6 6 5 5 5 5
Wind_Direction
295 290 286 284 280 271 266 270 277 288 296 306 314 315 305 245 202 189 180 180 179 177 181 178 180 183 185 178 175 175 171 183 197 200 169 164 165 201 243 277 286 301 322 329
293 291 287 281 275 269 267 269 275 284 292 309 314 313 304 292 247 209 195 192 187 184 186 184 185 187 184 178 178 176 174 179 183 182 163 165 178 196 209 251 293 323 323 323
294 299 293 282 288 290 300 310 307 305 319 335 326 315 313 318 295 244 217 201 193 189 190 189 189 186 182 178 175 177 175 172 168 169 164 170 191 191 198 229 242 254 292 322
289 292 283 288 315 325 312 318 327 329 338 337 327 319 345 359 342 306 268 219 198 192 187 188 189 178 173 169 175 179 172 168 163 165 168 171 182 185 205 238 210 178 281 322
277 281 284 298 337 343 324 338 348 345 354 353 342 326 5 3 347 323 276 249 204 195 187 188 185 176 171 173 176 173 170 169 164 164 166 171 180 186 191 203 208 197 219 242
272 280 286 329 358 350 315 325 12 14 10 358 352 343 345 350 344 337 335 286 206 196 188 184 177 169 172 173 174 173 168 167 161 159 162 168 174 177 178 177 188 203 200 191
266 274 283 357 0 345 326 10 14 13 9 2 354 345 341 346 347 342 341 328 199 191 189 182 170 166 176 176 177 166 157 156 156 155 157 159 163 170 171 168 181 199 192 161
283 278 304 28 14 19 4 358 2 4 1 354 345 338 338 340 338 334 336 326 258 210 195 178 170 171 179 178 164 150 149 154 157 155 160 156 153 163 167 171 187 196 191 170
304 316 3 19 19 15 1 350 354 353 349 344 337 333 331 329 327 324 322 311 279 229 205 197 188 184 181 168 154 147 150 155 156 152 150 148 154 164 175 187 187 186 168 153
304 305 327 339 352 359 354 344 339 342 342 338 333 329 327 323 320 317 313 306 281 244 215 212 203 194 178 162 157 153 157 159 161 160 157 149 144 151 152 162 168 166 138 132
295 307 317 334 350 349 347 340 333 334 334 331 327 324 324 320 317 313 307 298 287 261 235 222 208 197 180 169 166 166 166 167 170 165 154 141 119 90 106 78 90 103 87 80
296 318 318 327 341 342 337 333 331 330 327 325 323 321 321 318 316 311 304 298 286 273 253 236 219 206 186 177 176 176 176 176 171 159 150 143 133 106 69 99 96 90 93 103
304 315 318 323 329 332 331 329 327 323 320 321 321 321 321 317 313 310 303 298 287 275 261 250 235 215 194 183 184 184 182 173 165 162 159 157 154 150 143 109 91 95 104 114
323 325 322 329 329 330 327 324 322 318 319 322 321 321 320 317 314 310 304 298 295 287 269 253 241 225 200 187 187 187 184 175 166 163 163 166 165 164 161 159 159 152 141 146
323 326 321 323 323 325 327 326 324 323 325 324 323 321 320 317 312 308 304 300 294 286 273 258 247 234 203 191 189 186 180 172 165 160 161 165 164 163 161 164 159 154 150 162
320 316 316 320 322 325 326 326 324 321 321 319 318 318 316 312 309 306 303 299 292 284 276 263 250 239 208 195 188 183 177 171 162 159 162 163 163 162 162 163 159 158 162 164
314 314 319 319 320 322 322 322 321 318 317 316 316 316 314 311 309 308 307 302 294 285 278 267 253 237 215 199 187 177 168 168 165 164 167 167 166 165 163 160 157 155 151 150
318 318 317 317 319 319 317 317 318 317 315 315 314 313 311 310 308 308 308 305 298 288 278 273 261 237 215 202 189 174 165 165 169 170 166 165 163 161 157 154 152 144 135 144
313 310 310 311 313 313 314 315 316 315 315 316 315 312 308 305 304 305 307 302 294 288 281 276 267 244 219 209 189 171 167 166 172 172 165 161 161 158 156 156 153 148 150 153
296 299 302 304 306 308 309 309 311 311 312 314 312 309 308 307 307 306 303 296 288 285 284 276 257 239 217 197 182 176 171 170 172 171 165 164 164 161 158 155 152 151 152 154
293 297 299 299 301 303 304 305 306 306 309 310 309 307 307 307 306 303 300 295 294 292 287 270 248 228 203 186 180 177 173 172 172 170 167 163 162 159 157 155 152 152 152 152
289 294 299 301 301 300 302 304 306 306 306 306 306 306 307 306 305 300 293 291 294 295 286 259 244 207 183 178 182 174 172 169 167 163 162 161 160 158 156 153 151 149 146 143
291 295 299 301 301 299 300 301 303 304 303 306 307 307 306 303 299 296 296 299 300 298 288 260 238 192 171 171 177 170 168 167 164 160 158 156 154 152 150 148 146 143 140 138
295 296 297 297 297 297 298 303 304 302 302 303 302 304 305 303 298 294 295 302 306 301 285 242 215 187 176 176 175 175 170 163 157 154 152 149 145 141 139 139 137 135 136 136
293 293 293 295 295 295 297 300 301 300 298 297 299 303 304 303 302 305 307 306 302 294 274 225 207 195 185 178 181 181 175 166 158 153 151 147 144 142 141 139 137 135 134 134
289 289 290 290 291 290 291 293 295 296 297 298 300 304 308 309 310 311 310 309 302 289 282 235 186 187 192 189 187 183 172 162 159 154 150 146 140 135 133 134 134 132 131 130
286 286 284 283 285 285 288 290 291 292 293 295 302 308 311 310 308 309 311 310 304 279 264 223 182 180 180 175 166 159 149 144 142 140 138 134 131 130 132 132 129 126 124 125